Dewpoint
56 56 56 57 58 58 58 58 58 58 58 57 57 58 58 60 59 50 24 34 36 69 69 42 37 39 40 41 43 42 27 25 25 26 34 45 42 48 51 55 58 57 52 60 62
56 56 56 56 57 57 58 58 57 58 58 57 57 58 59 59 46 29 53 63 67 70 43 36 33 38 37 33 34 30 26 24 25 27 28 42 40 45 47 55 57 56 59 62 63
55 56 55 56 56 56 57 57 57 57 58 57 58 58 59 57 35 19 63 64 70 68 29 29 35 34 31 28 27 28 25 25 22 22 30 39 42 44 44 46 54 55 60 62 63
55 55 55 55 56 56 56 56 56 57 57 57 58 58 59 50 25 47 65 68 70 40 22 23 32 32 27 25 25 25 25 25 21 20 25 37 42 43 47 49 54 56 59 61 61
54 54 54 55 55 55 55 56 56 56 57 59 59 59 53 31 27 54 68 67 44 25 17 16 28 31 26 24 26 25 25 25 20 19 26 39 40 45 53 55 56 57 59 59 59
54 54 54 54 55 55 55 55 56 56 57 58 58 58 46 27 49 48 37 36 27 21 17 25 31 31 25 25 25 26 27 25 17 29 36 36 44 45 55 57 58 58 58 57 58
54 55 55 54 54 54 55 55 56 58 57 58 58 55 39 33 45 36 25 21 24 20 16 34 34 30 28 26 27 29 26 22 18 26 35 38 40 47 56 57 58 58 57 57 58
54 54 54 54 54 54 54 54 57 56 58 59 59 51 25 41 44 30 28 26 25 23 16 32 35 31 29 29 28 26 25 20 19 24 34 34 36 50 55 55 57 58 58 59 60
54 54 54 54 54 54 54 54 58 58 59 59 55 46 30 47 36 28 27 23 24 23 30 28 31 28 27 25 23 24 18 19 18 21 27 32 33 51 54 54 56 58 59 60 61
54 53 54 54 54 53 53 54 59 59 56 54 48 43 40 36 36 29 27 22 15 22 28 29 27 24 25 23 17 19 18 17 19 21 23 24 27 49 52 54 55 56 58 60 60
53 53 53 53 53 52 51 52 46 45 46 31 17 28 35 37 31 25 25 24 18 24 23 28 21 21 23 23 24 23 21 20 21 21 21 22 24 45 51 51 54 55 57 57 59
53 53 53 52 52 52 51 39 35 32 31 33 33 29 32 34 29 27 30 26 26 22 24 25 17 18 22 23 25 23 24 23 22 22 23 22 26 38 48 48 50 51 54 54 58
53 52 52 52 51 50 26 25 36 29 33 29 30 27 29 31 26 30 32 28 24 23 23 18 20 26 25 24 24 24 22 24 21 25 24 28 28 42 46 49 49 49 51 52 54
52 52 52 51 43 31 22 39 26 29 28 25 26 28 29 28 25 30 31 26 25 23 23 24 23 21 21 21 22 21 22 21 22 24 19 29 19 33 36 47 49 51 51 50 54
52 52 51 50 39 25 31 23 33 35 18 21 25 28 27 26 25 27 31 28 25 25 27 24 23 22 22 21 21 23 21 21 21 21 23 27 20 31 35 38 43 48 51 50 52
51 51 51 43 42 32 27 25 36 29 19 22 23 24 26 24 23 26 29 29 27 25 27 21 20 20 21 23 22 26 26 26 24 18 18 22 23 21 27 36 34 40 50 51 53
51 50 49 41 20 28 29 36 29 24 24 22 20 21 23 23 21 24 26 27 24 25 25 22 19 19 24 23 25 24 21 20 20 17 19 26 20 22 27 31 37 38 48 53 55
50 49 46 41 39 35 23 34 29 22 20 22 20 20 20 22 20 21 25 24 25 22 19 20 18 20 23 22 23 23 20 19 22 17 20 29 21 27 35 35 41 43 46 54 56
49 34 34 38 40 37 17 29 28 26 22 22 20 19 21 21 20 20 22 22 23 24 23 20 18 19 21 22 23 25 23 22 22 25 18 20 24 27 33 38 43 42 48 54 57
41 31 22 36 41 31 18 25 26 25 26 21 21 21 20 22 22 22 21 22 21 22 22 23 22 19 23 24 25 25 25 20 21 23 23 21 26 24 29 32 45 46 49 54 58
39 21 35 40 34 21 11 16 22 25 28 22 22 23 22 20 21 21 21 19 20 21 22 20 22 25 26 24 20 24 23 24 21 24 20 21 22 29 31 33 40 46 50 53 58
37 19 37 38 21 8 7 13 28 20 23 24 20 23 23 22 22 21 20 21 18 19 21 22 19 25 20 27 27 23 23 25 21 31 24 26 21 27 33 36 41 39 49 53 56
34 26 39 37 18 11 14 8 21 15 17 19 20 21 24 25 26 22 21 20 18 20 22 23 20 21 25 24 28 26 26 27 27 30 30 25 24 36 38 39 42 46 50 54 57
38 30 33 33 32 31 13 16 14 14 14 16 18 24 25 25 29 27 20 26 23 20 50 36 22 26 18 24 22 26 24 27 26 25 26 26 29 35 35 36 40 47 51 54 58
39 34 40 30 27 31 32 22 15 13 20 22 18 17 24 28 25 27 24 30 31 43 31 27 31 28 22 20 20 20 22 24 26 26 25 26 27 32 36 35 36 39 50 54 57
35 38 38 36 38 37 34 30 23 16 25 21 24 13 15 29 29 27 29 32 33 35 34 31 36 35 25 24 21 19 19 21 26 25 27 28 30 33 35 36 36 39 45 52 56
37 38 38 36 35 33 29 30 28 31 30 32 31 31 27 24 34 33 31 32 34 36 38 36 37 38 28 29 27 26 25 26 29 29 29 29 32 35 32 35 39 40 42 45 49
Lifted_Index
15 15 15 14 14 14 14 14 14 13 14 14 14 13 13 13 12 10 10 10 9 6 5 5 5 4 2 2 1 1 0 1 1 2 1 -1 -1 -2 -3 -4 -4 -3 -3 -3 -3
15 15 15 15 15 15 15 15 14 14 14 14 14 14 13 13 12 10 10 10 8 6 6 6 5 4 2 2 2 1 1 1 2 2 1 -0 -1 -1 -2 -3 -4 -3 -3 -3 -3
16 16 16 16 16 15 15 15 14 14 14 14 14 14 13 12 10 9 10 10 8 6 7 7 5 4 3 3 2 1 1 2 2 3 2 0 -1 -1 -2 -3 -3 -3 -3 -3 -4
16 16 17 17 16 16 16 15 14 14 14 14 14 13 12 11 8 7 8 8 7 8 8 7 6 4 3 3 2 2 2 2 3 3 2 0 -1 -2 -2 -3 -3 -3 -3 -3 -4
17 17 17 17 17 17 16 15 14 14 14 14 14 13 11 9 8 7 7 8 9 9 8 7 6 4 3 3 2 2 2 3 3 2 2 -0 -1 -2 -3 -3 -3 -3 -3 -3 -3
18 18 17 17 17 17 16 15 14 13 14 14 14 12 10 9 8 8 9 10 10 9 8 7 6 5 4 3 3 3 2 2 2 2 1 -1 -2 -3 -4 -4 -3 -3 -3 -3 -2
18 18 17 17 17 17 16 15 13 13 13 14 13 12 10 8 8 9 11 11 10 10 8 7 5 5 4 3 3 3 2 2 2 2 1 -1 -2 -4 -5 -4 -4 -4 -3 -3 -2
18 17 17 17 17 16 16 14 13 13 13 13 12 10 9 9 9 10 11 11 10 10 8 7 6 5 4 3 3 2 1 1 1 1 1 -0 -2 -4 -5 -5 -5 -4 -4 -3 -3
17 17 17 17 16 16 15 13 12 12 12 12 10 9 9 8 9 10 11 10 10 9 8 7 6 5 4 3 2 1 0 -0 0 1 1 0 -2 -4 -5 -5 -5 -5 -5 -5 -4
17 17 17 16 16 16 14 12 11 11 11 11 10 9 8 8 9 10 11 10 9 8 7 6 5 4 3 2 1 0 0 -0 0 1 1 0 -1 -4 -5 -6 -6 -6 -6 -5 -5
17 17 16 16 16 15 13 11 10 10 10 10 10 9 8 8 9 10 10 10 9 7 6 6 5 4 3 2 2 1 1 0 1 1 1 0 -1 -3 -4 -5 -5 -5 -5 -5 -5
16 16 16 16 15 14 13 11 10 10 9 9 10 9 9 9 9 9 9 9 8 6 6 5 4 4 3 3 2 1 1 0 0 1 1 0 -1 -2 -3 -4 -5 -5 -5 -5 -5
16 16 16 15 15 14 12 11 10 10 9 9 9 9 9 9 9 9 9 8 7 6 5 5 4 4 4 3 2 1 0 0 0 0 0 0 -0 -1 -2 -4 -4 -4 -4 -4 -5
16 16 16 15 14 13 11 10 10 9 7 7 8 9 9 9 9 9 8 8 7 7 6 5 5 4 4 3 2 1 1 0 0 -0 -0 0 -0 -0 -1 -2 -3 -4 -4 -4 -4
16 16 16 15 13 12 11 10 9 7 6 6 7 8 8 8 9 9 8 8 8 7 6 5 5 4 4 3 2 1 1 1 1 -0 -0 -0 -0 -0 -0 -1 -2 -3 -4 -4 -3
15 15 15 14 13 13 12 10 8 6 5 6 7 8 8 8 8 8 8 8 7 6 6 5 5 4 4 3 3 2 2 1 1 -0 -0 -0 -0 0 0 1 0 -2 -3 -4 -4
15 15 14 13 13 13 12 9 7 6 6 6 7 7 7 7 8 8 8 7 7 6 5 5 5 4 4 3 3 2 1 0 -0 -1 -0 0 1 1 1 2 1 -0 -2 -4 -4
15 14 13 13 13 12 10 8 6 6 7 7 7 7 7 7 7 7 7 7 7 5 4 4 4 4 4 3 3 2 1 -0 -1 -0 -0 1 1 2 2 2 2 0 -2 -4 -5
14 13 12 12 12 11 9 7 6 6 6 7 7 6 6 6 7 7 7 7 7 6 5 4 3 4 4 3 3 2 1 0 0 0 0 1 2 2 3 2 1 0 -2 -4 -5
13 12 11 11 11 10 8 7 6 6 6 6 6 5 6 6 7 7 7 7 6 6 5 4 3 3 4 3 3 2 2 1 0 0 -0 0 1 2 3 2 1 -0 -2 -4 -5
11 10 10 10 10 8 7 7 7 6 6 6 5 5 5 5 6 6 6 6 6 6 5 4 4 4 4 3 3 2 2 1 0 0 -0 0 1 2 3 3 1 0 -1 -3 -4
10 9 9 8 8 7 7 7 7 7 6 6 5 5 5 5 5 5 4 5 5 5 5 5 4 3 3 3 3 2 2 1 1 0 1 1 1 2 3 2 2 1 -1 -2 -3
10 9 8 7 7 6 7 7 7 7 6 6 6 5 5 4 4 4 3 4 4 4 4 4 3 3 3 3 3 2 2 2 1 1 1 1 1 2 2 2 2 1 -1 -2 -2
9 8 7 7 6 6 6 6 6 6 6 6 6 5 4 4 3 3 3 3 4 4 4 3 3 2 2 1 1 1 2 2 1 1 0 1 1 2 2 3 2 1 -0 -1 -2
8 7 6 6 6 6 6 6 6 6 6 6 5 5 4 3 3 3 2 3 3 3 3 3 2 2 1 1 1 1 1 2 2 1 1 1 1 2 3 4 4 3 1 -0 -1
9 8 7 6 6 5 5 5 5 5 5 5 5 4 4 3 3 2 2 2 2 2 2 2 1 1 1 1 1 1 1 1 2 2 1 1 2 2 3 4 4 4 2 1 -0
11 10 8 7 6 5 5 5 5 5 5 4 4 4 4 3 3 2 2 1 1 1 1 1 1 0 1 1 1 1 2 2 2 2 2 2 2 3 4 4 4 4 3 2 1